TimePDT,TemperatureF,Dew PointF,Humidity,Sea Level PressureIn,VisibilityMPH,Wind Direction,Wind SpeedMPH,Gust SpeedMPH,PrecipitationIn,Events,Conditions,WindDirDegrees,DateUTC
12:56 AM,60.1,55.0,83,29.83,10.0,North,8.1,-,N/A,,Partly Cloudy,10,2013-09-14 07:56:00
1:22 AM,60.8,55.4,82,29.82,10.0,NNW,3.5,-,N/A,,Mostly Cloudy,340,2013-09-14 08:22:00
1:56 AM,60.1,55.0,83,29.83,10.0,Calm,Calm,-,N/A,,Mostly Cloudy,0,2013-09-14 08:56:00
2:56 AM,60.1,54.0,80,29.83,10.0,Calm,Calm,-,N/A,,Overcast,0,2013-09-14 09:56:00
3:56 AM,60.1,54.0,80,29.82,10.0,Calm,Calm,-,N/A,,Overcast,0,2013-09-14 10:56:00
4:56 AM,60.1,54.0,80,29.83,10.0,North,3.5,-,N/A,,Overcast,360,2013-09-14 11:56:00
5:56 AM,60.1,54.0,80,29.83,10.0,North,3.5,-,N/A,,Overcast,350,2013-09-14 12:56:00
6:56 AM,60.1,54.0,80,29.84,10.0,Calm,Calm,-,N/A,,Overcast,0,2013-09-14 13:56:00
7:56 AM,61.0,54.0,78,29.85,10.0,Calm,Calm,-,N/A,,Overcast,0,2013-09-14 14:56:00
8:04 AM,60.8,53.6,77,29.84,10.0,Calm,Calm,-,N/A,,Overcast,0,2013-09-14 15:04:00
8:56 AM,62.1,54.0,75,29.86,10.0,Calm,Calm,-,N/A,,Overcast,0,2013-09-14 15:56:00
9:56 AM,64.0,54.0,70,29.86,10.0,North,5.8,-,N/A,,Overcast,360,2013-09-14 16:56:00
10:56 AM,66.9,55.0,66,29.87,10.0,North,6.9,-,N/A,,Mostly Cloudy,10,2013-09-14 17:56:00
11:47 AM,68.0,55.4,64,29.85,10.0,North,9.2,-,N/A,,Scattered Clouds,360,2013-09-14 18:47:00
11:56 AM,66.9,55.9,68,29.86,10.0,North,10.4,-,N/A,,Scattered Clouds,360,2013-09-14 18:56:00
12:56 PM,68.0,57.0,68,29.85,10.0,North,11.5,-,N/A,,Partly Cloudy,10,2013-09-14 19:56:00
1:56 PM,69.1,57.0,65,29.83,10.0,North,12.7,-,N/A,,Clear,360,2013-09-14 20:56:00
2:56 PM,70.0,57.0,63,29.82,10.0,North,15.0,-,N/A,,Clear,350,2013-09-14 21:56:00
3:56 PM,69.1,57.0,65,29.80,10.0,North,17.3,-,N/A,,Clear,350,2013-09-14 22:56:00
4:56 PM,69.1,57.0,65,29.79,10.0,North,15.0,-,N/A,,Clear,350,2013-09-14 23:56:00
5:56 PM,69.1,57.0,65,29.79,10.0,North,10.4,-,N/A,,Clear,350,2013-09-15 00:56:00
6:56 PM,66.9,55.9,68,29.79,10.0,North,10.4,-,N/A,,Clear,10,2013-09-15 01:56:00
7:56 PM,64.0,54.0,70,29.81,10.0,NNW,10.4,-,N/A,,Clear,340,2013-09-15 02:56:00
8:56 PM,63.0,55.0,75,29.82,10.0,North,8.1,-,N/A,,Clear,350,2013-09-15 03:56:00
9:56 PM,61.0,54.0,78,29.82,10.0,NNW,4.6,-,N/A,,Clear,340,2013-09-15 04:56:00
10:56 PM,61.0,54.0,78,29.83,10.0,Calm,Calm,-,N/A,,Clear,0,2013-09-15 05:56:00
11:56 PM,59.0,53.1,81,29.83,10.0,NW,3.5,-,N/A,,Clear,310,2013-09-15 06:56:00